www.pogodaiklimat.ru
Время
и дата
17:53 26.05
18:53 26.05
19:53 26.05
20:53 26.05
21:53 26.05
22:53 26.05
23:53 26.05
00:53 27.05
01:53 27.05
02:53 27.05
03:53 27.05
04:01 27.05
04:09 27.05
04:16 27.05
04:19 27.05
04:53 27.05
05:00 27.05
05:09 27.05
05:14 27.05
05:22 27.05
05:53 27.05
06:53 27.05
07:53 27.05
08:53 27.05
09:53 27.05
10:53 27.05
11:53 27.05
12:53 27.05
13:53 27.05
14:53 27.05
15:53 27.05
16:53 27.05
17:53 27.05
18:53 27.05
19:53 27.05
20:53 27.05
21:53 27.05
22:53 27.05
23:53 27.05
00:53 28.05
01:53 28.05
02:53 28.05
03:53 28.05
04:53 28.05
05:53 28.05
06:53 28.05
07:53 28.05
08:53 28.05
Ветер
(напр.,м/с)
Видим. Явления Облачность Т
(С)
Тd
(С)
f
(%)
Тe
(С)
Тes
(С)
Комфортность P
(гПа)
Po
(гПа)
Тmin
(С)
Tmax
(С)
R
(мм)
R24
(мм)
S
(см)
СЗ 3 16 км ясно +19.4 +5.6 40 +20 +23 1017.8 900.7
СЗ 4 16 км 8/0 2700 m
[Ac]
+17.8 +6.1 46 +18 +18 1017.8 900.7
З 3 16 км 2/0 2400 m
[Ac]
+13.9 +7.8 67 +13 +13 1018.6 901.3
Ю 2 16 км ясно +11.1 +6.1 71 +10 +10 1019.3 901.9
ЮЗ 2 16 км ясно +10.6 +6.1 74 +9 +9 1019.3 901.9 +10.0 +21.1
штиль 0 16 км ясно +7.2 +4.4 82 +6 +6 1019.7 901.9
штиль 0 16 км ясно +8.3 +5.0 80 +8 +8 1019.3 901.9
штиль 0 16 км ясно +6.7 +4.4 85 +6 +6 1019.5 902.2
ЮЗ 2 16 км ясно +7.2 +4.4 82 +5 +5 1019.7 902.5
штиль 0 16 км ясно +5.6 +3.3 85 +5 +5 1020.1 902.8
штиль 0 1 км дымка ясно +4.4 +2.2 86 +3 +3 1020.3 902.8 +3.9 +10.6
штиль 0 2 км дымка ясно +4.4 +2.2 86 +3 +3 902.8
штиль 0 5 км дымка ясно +4.4 +2.2 86 +3 +3 902.8
штиль 0 2 км дымка 5/5 60 м +5.0 +2.8 86 +4 +4 902.8
штиль 0 400 м туман ?/? +4.4 +2.8 89 +3 +3 902.8
штиль 0 400 м туман ?/? +4.4 +2.8 89 +3 +3 1020.8 903.1
штиль 0 800 м туман 5/2 30 m
[Ac]
+5.0 +3.3 89 +4 +4 903.4
штиль 0 400 м туман 2/0 2700 m
[Ac]
+5.0 +3.9 93 +4 +4 903.4
штиль 0 2 км дымка 2/0 2700 m
[Ac]
+5.6 +4.4 92 +5 +5 903.4
штиль 0 14 км 2/0 2700 m
[Ac]
+6.7 +5.0 89 +6 +6 903.4
штиль 0 16 км ясно +8.9 +6.1 83 +8 +9 1020.7 903.4
штиль 0 16 км ясно +12.2 +7.2 71 +12 +14 1020.7 903.4
СЗ 2 16 км ясно +15.6 +6.1 53 +16 +20 1020.8 903.7
штиль 0 16 км ясно +19.4 +7.2 45 +20 +31 1020.2 903.1
В 2 16 км ясно +22.8 +6.7 35 +23 +36 комфорт 1019.5 902.8 +3.9 +22.8
нст 3 16 км ясно +23.9 +6.1 32 +24 +37 комфорт 1019.1 902.2
нст 3 16 км ясно +26.1 +7.2 30 +26 +41 жарко 1017.8 901.6
В 2 16 км ясно +26.7 +5.0 25 +26 +45 жарко 1017.3 901.0
В 4 16 км 5/0 2700 m
[Ac]
+27.8 +3.9 22 +26 +34 жарко 1016.8 900.7
В 2 16 км 2/0 2700 m
[Ac]
+28.3 +3.3 20 +27 +39 жарко 1016.3 900.1
ЮВ 5 16 км 2/0 3000 m
[Ac]
+27.2 +3.3 21 +26 +31 жарко 1016.1 899.8 +22.2 +28.3
ЮВ 6 16 км ясно +26.7 +2.8 21 +25 +28 комфорт 1015.6 899.2
ЮВ 6 16 км ясно +26.1 +2.2 21 +25 +26 комфорт 1014.9 898.9
ЮВ 4 16 км ясно +22.8 +3.3 28 +23 +23 комфорт 1014.6 898.9
ЮВ 3 16 км ясно +17.8 +3.3 38 +18 +18 1015.0 898.9
З 3 16 км ясно +16.1 +5.6 50 +16 +16 1015.3 899.5
З 2 16 км 8/0 3600 m
[Ac]
+15.0 +6.7 58 +15 +15 1015.5 899.8 +14.4 +27.8
З 4 16 км ясно +13.9 +7.2 64 +13 +13 1015.5 899.8
штиль 0 16 км ясно +11.1 +6.7 74 +11 +11 1014.9 899.2
ЮВ 2 16 км ясно +10.6 +5.6 71 +9 +9 1014.3 898.9
Ю 2 16 км ясно +11.1 +4.4 63 +10 +10 1013.9 898.6
штиль 0 16 км ясно +8.9 +5.0 77 +8 +8 1013.7 898.3
ЮВ 2 16 км ясно +7.8 +5.0 82 +6 +6 1013.8 898.0 +7.8 +15.0
Ю 2 16 км ясно +8.3 +4.4 76 +7 +7 1013.7 898.0
штиль 0 16 км 8/0 3600 m
[Ac]
+10.6 +6.7 77 +10 +10 1013.8 898.3
З 2 16 км ясно +13.9 +7.8 67 +13 +15 1013.8 898.3
З 2 16 км ясно +17.8 +8.9 56 +18 +23 1013.9 898.3
З 2 16 км ясно +20.0 +9.4 50 +22 +30 комфорт 1013.3 897.7
Местоположение метеостанции Baker City Municipal Airport: широта 44.8428 долгота -117.8086 высота над уровнем моря 1024 м.
В архиве по умолчанию представлена погода в Бейкер-Сити за последние 1-2 суток. Обновление информации о фактической погоде в базе происходит ежечасно! Архивные данные за месяц целиком и за предыдущие месяцы Вы можете получить, выбрав интересующий диапазон дат из раскрывающегося списка и нажав кнопку "Ввод!".
Внимание! Архив погоды МЕТАР в базе сайта по станциям, не включенным в климатический монитор, хранится не более 60 дней. Нет смысла пытаться выбрать более раннюю дату.
*Определитесь, кто Вы:
Внимание! Время в таблицах - местное (без учета летнего времени). Для получения всемирного времени необходимо вычесть поправку, которая равна -8 ч.
Смотрите также архив погоды в соседних городах и на ближайших метеорологических станциях:
Партнеры нашего сайта:      
Пояснения к столбцам:
  • Ветер - указаны скорость ветра в м/с - средняя за 10 мин, порывы в срок и между сроками (в фигурных скобках) и направление, откуда дует ветер: С - северный,
  • СВ - северо-восточный, В - восточный, ЮВ - юго-восточный, Ю - южный, ЮЗ - юго-западный, З - западный, СЗ - северо-западный.
  • Видимость - горизонтальная дальность видимости в метрах или километрах. При видимости от 1 до 10 км при отсутствии осадков обычно наблюдается дымка, при ухудшении видимости до 1 км и менее - туман. В сухую погоду видимость может ухудшаться дымом, пылью или мглою.
  • Явления - указаны атмосферные явления, наблюдавшиеся в срок или в последний час перед сроком; фигурными скобками обозначены явления, наблюдавшиеся между сроками (за 1-3 часа до срока); квадратными скобками обозначены град или гололедные отложения с указанием их диаметра в мм.
  • Облачность - указаны через наклонную черту общая и нижняя облачность в баллах и высота нижней границы облаков в метрах; квадратными скобками обозначены формы облаков: Ci - перистые, Cs - перисто-слоистые, Cc - перисто-кучевые, Ac - высококучевые, As - высокослоистые, Sc - слоисто-кучевые, Ns - слоисто-дождевые, Cu - кучевые, Cb - кучево-дождевые. Подробнее классификацию облаков см. в Атласе облаков (PDF).
  • T - Температура воздуха - температура, измеренная на высоте 2 м над землей.
  • Td - Температура точки росы - температура, при понижении до которой содержащийся в воздухе водяной пар достигнет насыщения.
  • f - Относительная влажность воздуха - влажноcть воздуха, измеренная на высоте 2 м над землей.
  • Te - Эффективная температура - температура, которую ощущает одетый по сезону человек в тени. Характеристика душности погоды. При расчете учитывается влияние влажности воздуха и скорости ветра на теплоощущения человека.
  • Tes - Эффективная температура на солнце - температура, которую ощущает человек, с поправкой на солнечный нагрев. Характеристика знойности погоды. Зависит от высоты солнца над горизонтом, облачности и скорости ветра. Ночью, в пасмурную погоду, а также при ветре 12 м/с и более поправка равна нулю.
  • P - Атмосферное давление - приведенное к уровню моря атмосферное давление.
  • Po - Атмосферное давление - измеренное на уровне метеостанции атмосферное давление.
  • Tmin - Минимальная температура - минимум температуры воздуха на высоте 2 м над землей.
  • Tmax - Максимальная температура - максимум температуры воздуха на высоте 2 м над землей.
  • R - Количество осадков - Количество выпавших осадков за период времени, мм. При наведении курсора мыши на число - период времени, за который выпало указанное количество осадков.
  • R24 - Количество осадков - Количество выпавших осадков за 24 часа, мм.
  • S - Снежный покров - Высота снежного покрова, см. При наведении курсора мыши на число - состояние снежного покрова и степень покрытия местности в баллах.